Weather History for KOSC - August, 2013

Change the Weather History Date:

Wednesday, August 21, 2013

  Actual Average (KAPN) Record (KAPN)
Temperature  
Mean Temperature 76 °F 65 °F  
Max Temperature 90 °F 76 °F 99 °F (1955)
Min Temperature 61 °F 53 °F 31 °F (1922)
Degree Days  
Heating Degree Days 0 3  
Month to date heating degree days 39  
Since 1 June heating degree days 226  
Since 1 July heating degree days 83  
Cooling Degree Days 10 2  
Month to date cooling degree days 60  
Year to date cooling degree days 245  
Since 1 June cooling degree days 232  
Growing Degree Days 26 (Base 50)    
Moisture  
Dew Point 62 °F    
Average Humidity 64    
Maximum Humidity 94    
Minimum Humidity 38    
Precipitation  
Precipitation 0.00 in 0.11 in 1.79 in (1936)
Month to date precipitation 2.15  
Year to date precipitation 17.70  
Sea Level Pressure  
Sea Level Pressure 30.01 in    
Wind  
Wind Speed 9 mph (SW)    
Max Wind Speed 20 mph    
Max Gust Speed 25 mph    
Visibility 10 miles    
Events      
T = Trace of Precipitation, MM = Missing Value Source: NWS Daily Summary

Daily Weather History Graph

Daily Weather History Graph

Search for Another Location

Airport or City:

Trip Planner

Search our weather history database for the weather conditions in past years. The results will help you decide how hot, cold, wet, or windy it might be!

Date:

Astronomy

Aug. 21, 2013 Rise Set
Actual Time 6:43 AM EDT 8:28 PM EDT
Civil Twilight 6:12 AM EDT 8:59 PM EDT
Nautical Twilight 5:35 AM EDT 9:37 PM EDT
Astronomical Twilight 4:54 AM EDT 10:17 PM EDT
Moon 8:31 PM EDT (8/21) 7:26 AM EDT (8/21)
Length of Visible Light 14h 46m
Length of Day
13h 44m
Full, 100% of the Moon is Illuminated
Aug 21
Full
Aug 28
Last Quarter
Sep 5
New
Sep 12
First Quarter
Sep 19
Full

Hourly Weather History & Observations

Time (EDT) Temp. Heat Index Dew Point Humidity Pressure Visibility Wind Dir Wind Speed Gust Speed Precip Events Conditions
12:13 AM 67.5 °F - 60.8 °F 79% 30.06 in 10.0 mi SW 6.9 mph - N/A   Clear
12:34 AM 67.6 °F - 60.1 °F 77% 30.06 in 10.0 mi SW 5.8 mph - N/A   Clear
12:54 AM 67.6 °F - 59.7 °F 76% 30.06 in 10.0 mi SW 5.8 mph - N/A   Clear
1:13 AM 66.2 °F - 59.9 °F 80% 30.06 in 10.0 mi SW 4.6 mph - N/A   Clear
1:34 AM 69.4 °F - 60.8 °F 74% 30.07 in 10.0 mi SSW 5.8 mph - N/A   Clear
1:54 AM 68.4 °F - 60.1 °F 75% 30.06 in 10.0 mi SSW 3.5 mph - N/A   Clear
2:13 AM 65.7 °F - 59.5 °F 81% 30.06 in 10.0 mi SW 4.6 mph - N/A   Clear
2:34 AM 64.4 °F - 59.2 °F 83% 30.06 in 10.0 mi SSW 5.8 mph - N/A   Clear
2:54 AM 61.9 °F - 59.2 °F 91% 30.06 in 10.0 mi SSW 5.8 mph - N/A   Clear
3:13 AM 63.1 °F - 59.4 °F 87% 30.06 in 10.0 mi SSW 4.6 mph - N/A   Clear
3:34 AM 63.0 °F - 59.9 °F 90% 30.06 in 10.0 mi SSW 4.6 mph - N/A   Clear
3:54 AM 64.9 °F - 60.4 °F 85% 30.06 in 10.0 mi SSW 4.6 mph - N/A   Clear
4:14 AM 63.9 °F - 60.1 °F 87% 30.06 in 10.0 mi SSW 5.8 mph - N/A   Clear
4:34 AM 64.0 °F - 60.3 °F 87% 30.06 in 10.0 mi SSW 3.5 mph - N/A   Clear
4:53 AM 63.1 °F - 59.9 °F 89% 30.06 in 10.0 mi SSW 3.5 mph - N/A   Clear
5:14 AM 62.2 °F - 59.4 °F 90% 30.06 in 7.0 mi SSW 4.6 mph - N/A   Clear
5:34 AM 63.7 °F - 60.6 °F 90% 30.06 in 7.0 mi SSW 4.6 mph - N/A   Clear
5:53 AM 63.5 °F - 60.4 °F 90% 30.06 in 7.0 mi SSW 5.8 mph - N/A   Clear
6:14 AM 62.6 °F - 60.1 °F 91% 30.06 in 7.0 mi SSW 5.8 mph - N/A   Clear
6:34 AM 61.7 °F - 59.7 °F 93% 30.06 in 7.0 mi SW 6.9 mph - N/A   Clear
6:53 AM 61.7 °F - 59.7 °F 93% 30.06 in 5.0 mi SW 5.8 mph - N/A   Clear
7:14 AM 61.7 °F - 60.1 °F 94% 30.07 in 5.0 mi SW 4.6 mph - N/A   Clear
7:34 AM 63.5 °F - 61.7 °F 94% 30.06 in 5.0 mi SW 5.8 mph - N/A   Clear
7:53 AM 65.3 °F - 62.2 °F 90% 30.07 in 7.0 mi SW 5.8 mph - N/A   Clear
8:14 AM 66.9 °F - 63.1 °F 88% 30.07 in 7.0 mi SW 8.1 mph - N/A   Clear
8:34 AM 68.4 °F - 63.5 °F 84% 30.08 in 7.0 mi SSW 8.1 mph - N/A   Clear
8:53 AM 70.0 °F - 63.9 °F 81% 30.08 in 10.0 mi SSW 10.4 mph - N/A   Clear
9:14 AM 71.8 °F - 63.9 °F 76% 30.07 in 10.0 mi SSW 10.4 mph - N/A   Clear
9:34 AM 73.4 °F - 64.4 °F 73% 30.07 in 10.0 mi SSW 8.1 mph - N/A   Clear
9:53 AM 75.9 °F - 64.9 °F 69% 30.07 in 10.0 mi SSW 9.2 mph - N/A   Clear
10:14 AM 78.1 °F - 65.1 °F 64% 30.06 in 10.0 mi SW 9.2 mph - N/A   Clear
10:34 AM 79.9 °F - 64.8 °F 60% 30.06 in 10.0 mi SW 13.8 mph - N/A   Clear
10:53 AM 82.2 °F 83.8 °F 64.6 °F 55% 30.05 in 10.0 mi SW 13.8 mph - N/A   Clear
11:14 AM 83.5 °F 85.3 °F 65.1 °F 54% 30.05 in 10.0 mi SSW 12.7 mph - N/A   Clear
11:34 AM 84.9 °F 86.3 °F 64.6 °F 50% 30.05 in 10.0 mi SW 13.8 mph 18.4 mph N/A   Clear
11:53 AM 85.8 °F 87.1 °F 64.0 °F 48% 30.04 in 10.0 mi SSW 11.5 mph 18.4 mph N/A   Scattered Clouds
12:14 PM 85.6 °F 87.1 °F 64.6 °F 49% 30.04 in 10.0 mi SSW 12.7 mph 20.7 mph N/A   Mostly Cloudy
12:34 PM 86.2 °F 87.6 °F 64.2 °F 48% 30.04 in 10.0 mi SW 13.8 mph 18.4 mph N/A   Mostly Cloudy
12:53 PM 88.0 °F 88.1 °F 61.7 °F 41% 30.03 in 10.0 mi North - - N/A   Scattered Clouds
1:14 PM 87.8 °F 87.4 °F 60.3 °F 39% 30.02 in 10.0 mi SSW 19.6 mph - N/A   Clear
1:34 PM 88.2 °F 88.1 °F 61.2 °F 40% 30.01 in 10.0 mi SSW 19.6 mph 25.3 mph N/A   Clear
1:53 PM 88.0 °F 89.0 °F 63.9 °F 44% 30.01 in 10.0 mi South 18.4 mph 23.0 mph N/A   Clear
2:14 PM 87.3 °F 88.6 °F 64.4 °F 46% 30.01 in 10.0 mi South 17.3 mph 21.9 mph N/A   Clear
2:34 PM 88.5 °F 89.8 °F 64.2 °F 44% 30.00 in 10.0 mi SSW 12.7 mph 24.2 mph N/A   Scattered Clouds
2:54 PM 88.2 °F 89.0 °F 63.3 °F 43% 29.99 in 10.0 mi SSW 18.4 mph 24.2 mph N/A   Scattered Clouds
3:14 PM 89.1 °F 90.0 °F 63.0 °F 42% 29.97 in 10.0 mi South 15.0 mph 24.2 mph N/A   Scattered Clouds
3:33 PM 89.2 °F 89.9 °F 63.0 °F 41% 29.97 in 10.0 mi SSW 19.6 mph 25.3 mph N/A   Scattered Clouds
3:53 PM 89.6 °F 90.1 °F 62.6 °F 40% 29.97 in 10.0 mi SW 18.4 mph 23.0 mph N/A   Clear
4:14 PM 90.0 °F 90.3 °F 62.1 °F 39% 29.96 in 10.0 mi SW 17.3 mph 23.0 mph N/A   Clear
4:33 PM 89.6 °F 90.4 °F 62.8 °F 41% 29.95 in 10.0 mi SSW 16.1 mph 21.9 mph N/A   Clear
4:53 PM 89.6 °F 89.5 °F 61.0 °F 38% 29.95 in 10.0 mi SW 17.3 mph 20.7 mph N/A   Clear
5:14 PM 89.8 °F 89.7 °F 60.8 °F 38% 29.95 in 10.0 mi SSW 15.0 mph - N/A   Clear
5:33 PM 89.8 °F 89.7 °F 61.0 °F 38% 29.94 in 10.0 mi SW 16.1 mph 20.7 mph N/A   Clear
5:54 PM 89.1 °F 88.8 °F 60.6 °F 38% 29.93 in 10.0 mi SSW 17.3 mph 23.0 mph N/A   Clear
6:14 PM 88.5 °F 88.3 °F 61.0 °F 39% 29.92 in 10.0 mi SW 18.4 mph 25.3 mph N/A   Clear
6:33 PM 88.0 °F 88.1 °F 61.5 °F 41% 29.92 in 10.0 mi SW 16.1 mph - N/A   Clear
6:54 PM 86.9 °F 87.2 °F 62.1 °F 43% 29.91 in 10.0 mi SW 16.1 mph 23.0 mph N/A   Clear
7:14 PM 86.0 °F 86.6 °F 62.6 °F 45% 29.92 in 10.0 mi SW 15.0 mph 20.7 mph N/A   Clear
7:33 PM 85.1 °F 85.9 °F 62.8 °F 47% 29.92 in 10.0 mi SSW 11.5 mph - N/A   Clear
7:54 PM 83.5 °F 84.7 °F 63.5 °F 51% 29.92 in 10.0 mi SSW 11.5 mph - N/A   Clear
8:14 PM 82.4 °F 83.7 °F 63.7 °F 53% 29.93 in 10.0 mi SW 10.4 mph - N/A   Clear
8:33 PM 81.5 °F 82.9 °F 64.0 °F 55% 29.93 in 10.0 mi SW 9.2 mph - N/A   Clear
8:54 PM 80.4 °F 82.1 °F 64.4 °F 58% 29.94 in 10.0 mi SSW 8.1 mph - N/A   Clear
9:14 PM 79.7 °F - 64.6 °F 60% 29.95 in 10.0 mi SW 9.2 mph - N/A   Clear
9:33 PM 79.0 °F - 64.6 °F 61% 29.95 in 10.0 mi SSW 10.4 mph - N/A   Clear
9:54 PM 78.8 °F - 64.6 °F 62% 29.95 in 10.0 mi SSW 9.2 mph - N/A   Clear
10:14 PM 78.3 °F - 64.6 °F 63% 29.95 in 10.0 mi SW 10.4 mph - N/A   Clear
10:33 PM 78.3 °F - 64.4 °F 62% 29.95 in 10.0 mi SW 10.4 mph - N/A   Clear
10:54 PM 78.3 °F - 64.4 °F 62% 29.95 in 10.0 mi SW 13.8 mph - N/A   Clear
11:14 PM 78.8 °F - 64.2 °F 61% 29.95 in 10.0 mi WSW 15.0 mph - N/A   Clear
11:33 PM 78.4 °F - 64.4 °F 62% 29.95 in 10.0 mi SW 12.7 mph - N/A   Clear
11:54 PM 78.1 °F - 64.4 °F 63% 29.94 in 10.0 mi SW 12.7 mph - N/A   Clear